Location: Bois de la Silve
(44.4667°N, 6.7833°E)
Time: 03:50:11
(UTC+00:00)

Cosmos 2369 - Pass Details

Date: 14 July 2020
Orbit: 839 x 857 km, 71.0° (Epoch: 06 August)

Event Time Altitude Azimuth Distance (km) Brightness Sun altitude
Rises 01:39:48 0° 334° (NNW) 3,434 7.4 -18.4°
Reaches altitude 10° 01:42:15 10° 335° (NNW) 2,496 6.6 -18.1°
Maximum altitude 01:48:01 85° 63° (ENE) 865 3.7 -17.6°
Drops below altitude 10° 01:53:45 10° 154° (SSE) 2,483 5.8 -17.1°
Enters shadow 01:54:53 - 155° (SSE) 2,915 6.2 -17.0°
